[[{"header":{"parameterUnit":"m.s-1","parameterCategory":1,"la1":30.2991,"la2":30.254,"lo1":-89.0895,"lo2":-89.0444,"dy":0.0017,"dx":0.0017,"nx":28,"ny":28,"refTime":"2025-05-22T03:00:00:Z","depth":0,"parameterNumber":2,"parameterNumberName":"U-component_of_WINDS"},"data":[0,0,0,0,0,0,0,0,0,0,0,0,0,0,0,0,0,0,0,0,0,0,0,0,0,0,0,0,0,0,0,0,0,0,0,0,0,0,0,0,0,0,0,0,0,0,0,0,0,0,0,0,0,0,0,0,0,0,-4.3108,-4.3108,0,-4.3121,-4.3121,-4.3121,-4.3036,-4.3034,-4.3031,-4.3029,-4.3042,-4.3044,-4.3047,0,0,0,0,0,0,0,0,0,0,0,0,0,-4.301,-4.3013,-4.3108,-4.3108,-4.3108,-4.3121,-4.3121,-4.3121,-4.3037,-4.3034,-4.3031,-4.3028,-4.3041,-4.3044,-4.3047,0,0,0,0,0,0,0,0,0,0,0,0,0,-4.3041,-4.3013,-4.3108,-4.3068,-4.3064,-4.3121,-4.3121,-4.3121,-4.3037,-4.3034,-4.303,-4.3027,-4.304,-4.3044,-4.3048,-4.3143,0,0,-4.3059,-4.3061,0,0,0,0,0,0,0,0,-4.3039,-4.3045,-4.3073,-4.307,-4.3067,-4.3073,-4.3091,-4.3129,-4.3038,-4.3047,-4.3029,-4.3025,-4.3055,-4.3058,-4.3068,-4.3144,-4.3145,-4.306,-4.3062,-4.3064,-4.3065,0,0,0,0,0,0,0,-4.3037,-4.3044,-4.3113,-4.3074,-4.307,-4.3049,-4.3049,-4.3098,-4.3071,-4.3046,-4.304,-4.3043,-4.3053,-4.3064,-4.3068,-4.3145,-4.306,-4.3063,-4.3065,-4.3067,-4.3301,-4.3305,0,0,0,0,0,0,-4.3041,-4.3043,-4.3113,-4.3113,-4.3044,-4.3054,-4.3054,-4.3075,-4.3071,-4.3066,-4.3046,-4.3039,-4.306,-4.3063,-4.3068,-4.3179,-4.3064,-4.3067,-4.3069,-4.3298,-4.3302,-4.3306,0,0,0,0,0,0,-4.3039,-4.3048,-4.3112,-4.3076,-4.3083,-4.3059,-4.3083,-4.3077,-4.3088,-4.307,-4.3065,-4.3063,-4.3057,-4.3062,-4.3125,-4.3179,-4.3069,-4.3073,-4.3293,-4.3299,-4.3304,-4.3404,0,0,0,0,0,0,-4.3037,-4.3048,-4.3083,-4.3078,-4.3085,-4.317,-4.3086,-4.308,-4.3095,-4.3086,-4.3085,-4.3081,-4.3054,-4.312,-4.3129,-4.3182,-4.3076,-4.3288,-4.3296,-4.3302,-4.3396,-4.3412,-4.3427,0,0,0,0,0,-4.3033,-4.311,-4.3086,-4.3094,-4.3129,-4.3173,-4.3177,-4.3145,-4.31,-4.3136,-4.3125,-4.3081,-4.3172,-4.3127,-4.3137,-4.3191,-4.3284,-4.3293,-4.3302,-4.3389,-4.3409,-4.3426,0,0,0,0,0,0,-4.3122,-4.3109,-4.3081,-4.3159,-4.3168,-4.3158,-4.3202,-4.3168,-4.3189,-4.3179,-4.3139,-4.314,-4.321,-4.3207,-4.3158,-4.3285,-4.322,-4.3232,-4.3283,-4.3302,-4.3318,-4.3315,-4.3079,0,0,0,0,0,-4.3151,-4.3187,-4.3174,-4.3243,-4.325,-4.3226,-4.3243,-4.3218,-4.3226,-4.3229,-4.3222,-4.3231,-4.3261,-4.3282,-4.3309,-4.3396,-4.3394,-4.3439,-4.3454,-4.3467,-4.3476,-4.3522,-4.3542,-4.3335,-4.3335,-4.3335,0,0,-4.3209,-4.3207,-4.3232,-4.3261,-4.3265,-4.3304,-4.3229,-4.3273,-4.3301,-4.3235,-4.3294,-4.329,-4.3298,-4.3373,-4.3406,-4.3373,-4.3534,-4.3478,-4.3489,-4.3491,-4.3533,-4.3553,-4.357,-4.3341,-4.334,-4.3339,0,0,-4.3336,-4.3339,-4.3397,-4.3403,-4.3411,-4.3395,-4.3409,-4.3406,-4.3401,-4.346,-4.3412,-4.3446,-4.3499,-4.3506,-4.3517,-4.3651,-4.3611,-4.3662,-4.3741,-4.3787,-4.3803,-4.3817,-4.3864,-4.3881,-4.3671,-4.3672,-4.3672,0,-4.3408,-4.3464,-4.3431,-4.3479,-4.3493,-4.3437,-4.3496,-4.3504,-4.352,-4.3531,-4.3495,-4.3562,-4.3563,-4.364,-4.3673,-4.3684,-4.3699,-4.366,-4.3803,-4.3817,-4.383,-4.3874,-4.3892,-4.3677,-4.3677,-4.3676,-4.3676,0,-4.3552,-4.3592,-4.3639,-4.3656,-4.3676,-4.373,-4.3705,-4.3729,-4.3704,-4.3693,-4.3754,-4.3754,-4.3781,-4.3798,-4.3773,-4.3872,-4.3851,-4.381,-4.3744,-4.3856,-4.3897,-4.3913,-4.3686,-4.3684,-4.3682,-4.3681,0,0,-4.3731,-4.3732,-4.375,-4.3757,-4.3763,-4.3793,-4.3845,-4.3872,-4.3893,-4.3908,-4.3949,-4.3998,-4.396,-4.3973,-4.3949,-4.399,-4.4095,-4.3943,-4.3943,-4.397,-4.4203,-4.4232,-4.4252,-4.4071,-4.4074,-4.4076,-4.4202,0,-4.3854,-4.3941,-4.3914,-4.4002,-4.4039,-4.3988,-4.4033,-4.4042,-4.4034,-4.4064,-4.4055,-4.4089,-4.4038,-4.4045,-4.4083,-4.4074,-4.4141,-4.4065,-4.4108,-4.411,-4.4105,-4.4273,-4.4304,-4.4422,-4.4218,-4.422,-4.4222,0,-4.4007,-4.4028,-4.412,-4.4121,-4.4136,-4.4176,-4.4199,-4.4229,-4.4239,-4.423,-4.4247,-4.4215,-4.4266,-4.4203,-4.4273,-4.4222,-4.4239,-4.4238,-4.4242,-4.4242,-4.4171,-4.4276,-4.4459,-4.4476,-4.4247,-4.4245,-4.4244,0,-4.4126,-4.4178,-4.424,-4.4248,-4.4252,-4.4282,-4.4285,-4.4291,-4.4309,-4.433,-4.4342,-4.4369,-4.4383,-4.4405,-4.4382,-4.4338,-4.4455,-4.439,-4.4448,-4.4449,-4.4472,-4.4471,-4.4658,-4.4488,-4.4488,-4.4487,-4.4487,0,-4.4264,-4.4322,-4.4293,-4.4331,-4.4395,-4.4365,-4.4429,-4.4426,-4.4433,-4.447,-4.4429,-4.4464,-4.4433,-4.4466,-4.4449,-4.4509,-4.4517,-4.4511,-4.4505,-4.4513,-4.4513,-4.4521,-4.4511,-4.4492,-4.4491,-4.449,-4.4489,0,-4.4406,-4.439,-4.4453,-4.4453,-4.4454,-4.4501,-4.45,-4.4535,-4.4526,-4.4572,-4.4582,-4.4566,-4.4603,-4.4584,-4.4622,-4.461,-4.4688,-4.4672,-4.4684,-4.4679,-4.4738,-4.4732,-4.4935,-4.496,-4.4776,-4.4778,-4.4779,0,-4.4494,-4.4537,-4.4542,-4.4564,-4.457,-4.4605,-4.4624,-4.4598,-4.462,-4.4636,-4.4669,-4.4703,-4.4728,-4.4789,-4.4781,-4.4811,-4.4794,-4.4863,-4.4798,-4.4805,-4.4793,-4.4789,-4.4793,-4.4875,-4.4877,-4.4879,-4.4881,0,-4.4651,-4.4641,-4.467,-4.4698,-4.4722,-4.4742,-4.4758,-4.4779,-4.4753,-4.4779,-4.4817,-4.4837,-4.4876,-4.491,-4.4936,-4.4939,-4.4906,-4.4902,-4.4917,-4.4923,-4.4928,-4.4925,-4.4718,-4.4896,-4.4895,-4.4894,-4.4893,-4.4892,-4.4767,-4.4803,-4.4813,-4.4847,-4.4857,-4.4874,-4.4907,-4.4903,-4.4934,-4.4964,-4.4947,-4.4991,-4.5002,-4.5033,-4.5042,-4.5076,-4.5048,-4.507,-4.5075,-4.508,-4.5087,-4.4926,-4.5081,-4.508,-4.508,-4.5079,-4.5079,0,-4.492,-4.4924,-4.4956,-4.4981,-4.5009,-4.4977,-4.4995,-4.5019,-4.5059,-4.5072,-4.5098,-4.5142,-4.5176,-4.5172,-4.5203,-4.5231,-4.5217,-4.524,-4.5236,-4.5237,-4.5111,-4.5094,-4.5251,-4.5251,-4.5251,-4.5251,-4.5251,-4.5251,-4.5002,-4.5062,-4.5055,-4.512,-4.5124,-4.5167,-4.5179,-4.5195,-4.5206,-4.5257,-4.5284,-4.5282,-4.5289,-4.5321,-4.535,-4.5348,-4.5361,-4.5389,-4.5382,-4.5263,-4.5246,-4.5229,-4.5213,-4.5393,-4.5393,-4.5505,-4.5506,-4.5506]},{"header":{"parameterUnit":"m.s-1","parameterCategory":1,"la1":30.2991,"la2":30.254,"lo1":-89.0895,"lo2":-89.0444,"dy":0.0017,"dx":0.0017,"nx":28,"ny":28,"refTime":"2025-05-22T03:00:00:Z","depth":0,"parameterNumber":3,"parameterNumberName":"V-component_of_WINDS"},"data":[0,0,0,0,0,0,0,0,0,0,0,0,0,0,0,0,0,0,0,0,0,0,0,0,0,0,0,0,0,0,0,0,0,0,0,0,0,0,0,0,0,0,0,0,0,0,0,0,0,0,0,0,0,0,0,0,0,0,2.9406,2.9407,0,2.9531,2.9532,2.9534,2.9627,2.9628,2.9628,2.9629,2.9752,2.9754,2.9757,0,0,0,0,0,0,0,0,0,0,0,0,0,2.9244,2.9247,2.9406,2.9407,2.9409,2.9531,2.9533,2.9534,2.9627,2.9628,2.9629,2.963,2.9751,2.9754,2.9757,0,0,0,0,0,0,0,0,0,0,0,0,0,2.9336,2.9248,2.9406,2.947,2.9477,2.953,2.9533,2.9535,2.9626,2.9628,2.9629,2.963,2.975,2.9754,2.9757,2.9755,0,0,2.9769,2.977,0,0,0,0,0,0,0,0,2.9331,2.9342,2.9459,2.9466,2.9474,2.9565,2.9521,2.9608,2.9626,2.9569,2.9629,2.9631,2.9688,2.9697,2.9718,2.9761,2.9766,2.9769,2.9771,2.9773,2.9774,0,0,0,0,0,0,0,2.9324,2.9337,2.9455,2.946,2.9469,2.9492,2.9506,2.9538,2.962,2.9574,2.9582,2.9595,2.9692,2.9714,2.9721,2.9768,2.9769,2.9772,2.9775,2.9776,2.9819,2.9818,0,0,0,0,0,0,2.9308,2.9331,2.9451,2.9459,2.9404,2.9493,2.951,2.9534,2.962,2.9634,2.9594,2.9599,2.9707,2.9717,2.9726,2.9731,2.9773,2.9776,2.9779,2.982,2.9819,2.9818,0,0,0,0,0,0,2.9305,2.9318,2.9446,2.9397,2.9415,2.9495,2.9522,2.9536,2.9558,2.9635,2.965,2.9601,2.9708,2.9721,2.9748,2.9736,2.9778,2.9782,2.9821,2.982,2.9818,2.974,0,0,0,0,0,0,2.93,2.9316,2.9317,2.9397,2.9417,2.9467,2.9521,2.9537,2.9564,2.9572,2.9645,2.9659,2.971,2.9742,2.9752,2.9742,2.9784,2.9823,2.9821,2.9819,2.9744,2.9735,2.9728,0,0,0,0,0,2.9294,2.9288,2.9316,2.933,2.942,2.9466,2.9478,2.9539,2.9563,2.9564,2.9614,2.9656,2.9736,2.9744,2.9756,2.9747,2.9824,2.9821,2.9819,2.9747,2.9737,2.9729,0,0,0,0,0,0,2.9202,2.93,2.9332,2.9352,2.9401,2.9482,2.9485,2.9526,2.9567,2.9572,2.9645,2.966,2.9681,2.9717,2.9724,2.9751,2.9785,2.9785,2.9727,2.9718,2.9711,2.9701,2.9788,0,0,0,0,0,2.9185,2.9216,2.9299,2.9308,2.9331,2.9404,2.9426,2.9469,2.9521,2.9542,2.9594,2.9642,2.9678,2.97,2.9737,2.975,2.9767,2.975,2.9742,2.9735,2.9734,2.9745,2.9739,2.9809,2.9809,2.9809,0,0,2.9148,2.9206,2.922,2.9292,2.9334,2.9364,2.942,2.9448,2.9471,2.9545,2.9576,2.9616,2.9674,2.9694,2.9706,2.9725,2.9719,2.9732,2.9726,2.9729,2.9742,2.9735,2.9729,2.9808,2.9808,2.9808,0,0,2.9098,2.9144,2.9158,2.9201,2.9265,2.9314,2.9317,2.9393,2.9424,2.9456,2.9513,2.954,2.96,2.9641,2.9668,2.9636,2.9677,2.9646,2.9606,2.9616,2.9611,2.9606,2.9596,2.9591,2.9645,2.9644,2.9644,0,2.9044,2.9092,2.916,2.9186,2.9216,2.9288,2.9303,2.934,2.9413,2.9431,2.9453,2.9532,2.9576,2.9608,2.96,2.962,2.9627,2.9638,2.9606,2.9602,2.9599,2.959,2.9586,2.964,2.9641,2.9641,2.9642,0,2.9023,2.9056,2.906,2.9131,2.9162,2.9182,2.9252,2.9275,2.9316,2.9363,2.9395,2.9451,2.9502,2.9513,2.9552,2.9551,2.9561,2.9593,2.9629,2.9587,2.958,2.9577,2.9635,2.9636,2.9637,2.9638,0,0,2.8916,2.9028,2.9028,2.9062,2.914,2.9166,2.919,2.9243,2.9261,2.9309,2.9331,2.9382,2.9414,2.9446,2.949,2.9499,2.9471,2.953,2.9533,2.9518,2.9475,2.9451,2.9445,2.9499,2.9499,2.9498,2.947,0,2.8878,2.8927,2.899,2.9017,2.9049,2.9119,2.914,2.9189,2.9234,2.9267,2.9315,2.9351,2.9389,2.9409,2.9421,2.9472,2.9463,2.9475,2.952,2.9521,2.9503,2.9441,2.9415,2.9386,2.9468,2.9467,2.9467,0,2.884,2.8888,2.8918,2.8997,2.9012,2.903,2.9084,2.9115,2.9173,2.9205,2.9242,2.9291,2.932,2.9352,2.9393,2.9399,2.9422,2.945,2.945,2.9457,2.9491,2.9447,2.9378,2.9374,2.9463,2.9463,2.9464,0,2.876,2.8832,2.8861,2.8888,2.8979,2.899,2.9028,2.9088,2.9116,2.9163,2.9182,2.9231,2.9257,2.9294,2.9355,2.9373,2.9389,2.9426,2.9417,2.9415,2.9417,2.9416,2.9351,2.943,2.943,2.943,2.943,0,2.8711,2.8728,2.8827,2.8844,2.8865,2.8937,2.8955,2.8999,2.9053,2.908,2.9142,2.9166,2.9245,2.9278,2.9325,2.9353,2.9364,2.939,2.9403,2.9385,2.9382,2.94,2.9404,2.9429,2.9429,2.943,2.943,0,2.8626,2.8692,2.8728,2.8813,2.8835,2.8846,2.8918,2.8938,2.8987,2.9021,2.9033,2.9109,2.9152,2.9216,2.9277,2.9309,2.9329,2.9349,2.931,2.9318,2.9305,2.9305,2.925,2.9247,2.9326,2.9325,2.9325,0,2.859,2.8605,2.8692,2.8716,2.8753,2.879,2.882,2.8892,2.892,2.899,2.9001,2.9049,2.9091,2.9155,2.9215,2.9263,2.9285,2.9263,2.9292,2.9275,2.9286,2.9285,2.9287,2.9255,2.9254,2.9253,2.9252,0,2.852,2.8554,2.8596,2.865,2.8685,2.873,2.8778,2.8794,2.8876,2.8905,2.8951,2.8984,2.9048,2.9095,2.9151,2.9189,2.9235,2.9243,2.9243,2.9225,2.9203,2.9216,2.9292,2.9244,2.9244,2.9245,2.9246,2.9246,2.846,2.8477,2.8542,2.8587,2.8632,2.8677,2.87,2.8753,2.8793,2.8853,2.8892,2.8936,2.8995,2.9076,2.9113,2.9147,2.9167,2.9167,2.9167,2.9166,2.916,2.9197,2.9158,2.9158,2.9158,2.9159,2.9159,0,2.8394,2.8441,2.8482,2.8549,2.8585,2.8627,2.8683,2.871,2.8748,2.8801,2.8842,2.8895,2.8942,2.9007,2.9058,2.9073,2.9095,2.9084,2.9084,2.9093,2.9139,2.9135,2.9066,2.9066,2.9066,2.9066,2.9066,2.9066,2.8365,2.8397,2.8438,2.8494,2.854,2.8584,2.8613,2.8655,2.8698,2.8755,2.8795,2.8838,2.8896,2.8952,2.8997,2.9015,2.9031,2.9014,2.9038,2.908,2.9089,2.9097,2.9093,2.9016,2.9016,2.8989,2.8988,2.8988]}]]